LEMUR G

Last updated on Sat Sep 08 2018 00:06:51 GMT+0000 (Coordinated Universal Time)

1 43560U 18046G 18250.45473184 .00003576 00000-0 14202-3 0 9992 2 43560 51.6428 339.0963 0008879 148.4465 211.7048 15.27918418 8088
UTC large
Height (km)
Speed (km/s)
/
Latitude / Longitude
Inclination (degrees)
Orbital Period (minutes)
Azimuth
Elevation
Range (km)
Doppler Factor

Next 0 passes for location: London (51.5072 / 0.1276)

Sorry there are no passes over London.